weather.gov     
National Weather Service

Other Surface Observations
NWS Homepage
This page is being discontinued on March 12, 2014.
The same data is available at this site. Please update your bookmarks.
Thank you, and we apologize for the inconvenience.
Please send an email to SR-SRH.Webmaster@noaa.gov with any concerns.


Current Version
Previous Version:    01  02  03  04  05  06  07  08  09  10  11  12  13  14  15  16  17  18  19  20  21  22  23  24  25  26  27  28  29  30  
   31  32  33  34  35  36  37  38  39  40  41  42  43  44  45  46  47  48  49  50  51  52  53  54  55  56  57  58  59  60  
[Printable]
880
SXUS52 KTAE 281018
OSOTAE
OSOTAE
North Florida/South Alabama/Southwest Georgia Weather Roundup
National Weather Service Tallahassee Florida
600 AM EDT MON JUL 28 2014

Note: "fair" indicates few or no clouds below 12,000 feet with no
significant weather and/or obstructions to visibility.

!FLZ017-115-028-034-025-281100
...North Florida...

CITY           SKY/WX    TMP DP  RH WIND       PRES   REMARKS
TALLAHASSEE    CLEAR     78  78  97 CALM      30.01R
APALACHICOLA   CLEAR     78  77  96 W7        30.01R
PERRY          CLEAR     75  73  94 W3        30.02S
CROSS CITY       N/A     79  75  87 W3        30.02R
HOMERVILLE     FAIR      79  77  94 SW5       29.99S
JACKSONVILLE   PTCLDY    78  77  96 W8        29.98F
$$

!FLZ112-006-005-002-011-281100
...Florida Panhandle...

CITY           SKY/WX    TMP DP  RH WIND       PRES   REMARKS
MARIANNA       CLEAR     79  79 100 SW6       29.99S
BONIFAY        FAIR      77  76  96 CALM      30.01R
PANAMA CITY NW FAIR      81  78  91 SW6       30.00R
TYNDALL AFB    PTCLDY    83  80  89 W13       30.02R HX  95
TYND DRONE APT NOT AVBL
DE FUNIAK SPR  FAIR      75  75  99 CALM      30.02R FOG
EGLIN AFB      CLEAR     80  77  93 W2        30.01R
DESTIN         CLEAR     83  80  91 VRB3      30.00R HX  95
HURLBURT       CLEAR     82  75  79 W1        30.00R
CRESTVIEW      CLEAR     79  77  94 W3        30.02R
PENSACOLA      CLEAR     80  78  94 W9        30.01R
$$

!ALZ063-066-281100
...South Alabama...

CITY           SKY/WX    TMP DP  RH WIND       PRES   REMARKS
DOTHAN         CLEAR     77  75  93 W5        30.04R
OZARK CAIRNS   CLEAR     76  75  96 SW2       30.00R
FT RUCKER HELI CLEAR     78  75  90 W3        29.99R
RUCKER HELI 3  FAIR      77  75  94 W5        30.03R
RUCKER HELI 2  FAIR      77  75  93 CALM      30.00R
FLORALA APT    CLEAR     78  32  18 SW3       30.02S
ANDALUSIA      CLEAR     81  76  84 W5        30.01R
TROY           CLEAR     76  74  93 CALM      30.01R FOG
EUFALA         FAIR      79  75  87 W3        29.97S
MOBILE         CLEAR     77  77 100 W5        30.04R
$$

!GAZ120>161-281100
...Southwest and South Central Georgia...

CITY           SKY/WX    TMP DP  RH WIND       PRES   REMARKS
THOMASVILLE    FAIR      79  79 100 W3        30.01S
BAINBRIDGE     PTCLDY    81  79  94 W5        30.00S
MOODY AFB      PTCLDY    77  75  94 SW7       29.99R
VALDOSTA       PTCLDY    79  74  84 VRB3      30.00R
MOULTRIE       PTCLDY    77  77 100 SW5       30.01R
BLAKELY        CLEAR     79  77  94 W5        30.00R
ALBANY         PTCLDY    77  76  96 SW5       30.00R
TIFTON         FAIR      78  75  92 W5        29.99R
FITZGERALD     FAIR      80  77  91 W5        30.00R
CORDELE        FAIR      80  76  89 SW6       29.98S
AMERICUS       FAIR      77  75  94 W3        29.99S
$$

!GMZ750-755-770-775-281100
...Coastal and Buoy Obs...

STATION/POSITION TIME  TEMP    WIND        PRES    VSBY  WAVE
                       AIR SEA DIR/SP/G                  HT/PER
                 (UTC) (F)     (DEG/KT/KT) (MB)    (MI)  (FT/S)
KEATON BEACH     1000   83     280/ 14/ 17 1016.7R
CEDAR KEY        0959   84     290/  9/ 14 1017.4R
C TOWER          1000   83     280/ 14/ 15 1016.8R
APALACHICOLA BUO 1000   84 85  280/ 14/ 16 1017.1R
PANAMA CITY BUOY 0858   84 85  260/ 16/ 17 1016.8          3/ 4
MOBILE BUOY      0910   85 85  260/ 16/ 19 1017.3R
ORANGE BCH AL BU 1000   84 83  270/ 17/ 19 1016.1R         4/ 5
$$




U.S. Dept. of Commerce
NOAA National Weather Service
1325 East West Highway
Silver Spring, MD 20910
E-mail: w-nws.webmaster@noaa.gov
Page last modified: May 16, 2007
NATIONAL WEATHER SERVICE: for Safety, for Work, for Fun - FOR LIFE